Starlink 33814

operational
NORAD ID: 63582 Int'l Des: 2025-076 Owner: SPXS Country: US Constellation: starlink
LEOCIRCULAR

About Starlink 33814

Description loading...

Live Position

Loading 3D Globe...

Upcoming Passes

Altitude History

Altitude vs Time

uPlot chart will show altitude changes over time

Two-Line Element Set

1 63582U 25076P 25303.50686898 .00008135 00000-0 30486-3 0 9998
2 63582 43.0030 336.6357 0000367 329.8246 30.2584 15.27573484 31922
Epoch: Oct 30, 2025 • Age: 32 hours

Current Status

Altitude 482.4 km
Velocity 7.63 km/s
Sub-Earth Point 17.23°N, 146.06°E
Launch Date Apr 14, 2025
Age 0.5 years
Type internet

Technical Details

Classification Payload
Mass 575.00 kg
Dry Mass 530.00 kg
Total Mass 575.00 kg
Length 0.30 m
Diameter 4.10 m
Span 29.00 m
Shape Box + pan
Manufacturer SPXS
Bus Type Starlink V2MO
Phase Status In Orbit
Owner/State SPXS/US

Large Constellations

Loading constellations...